World > North America > United States > Texas

Sterling City, Texas Regional Weather

Lat: 31.84N, Lon: 100.99W
Wx Zone: TXZ064Web Search

Pass this page to a friend. Tell them to point their camera at the QR Code near the bottom of this page.

Feedback


°F Click to change Sterling City hourly weather to Imperial units.Click to change Sterling City hourly weather to Metric units. °C
Sterling City Weather Map
UTC Time: 4/11/2021, 04:10
Your Time:

Sterling City, TX Regional Weather

Expires:202104110500;;364092
ASUS44 KSJT 110402
RWRSJT
WEST CENTRAL TEXAS REGIONAL WEATHER ROUNDUP
NATIONAL WEATHER SERVICE SAN ANGELO TX
1100 PM CDT SAT APR 10 2021

NOTE: "FAIR" INDICATES FEW OR NO CLOUDS BELOW 12,000 FEET WITH NO
SIGNIFICANT WEATHER AND/OR OBSTRUCTIONS TO VISIBILITY.


TXZ049-054-064>066-071>073-076>078-098-099-113-114-127-128-139-140-
154-155-168>170-110500-
...LOCATIONS ACROSS WEST CENTRAL TEXAS...
  
CITY           SKY/WX    TMP DP  RH WIND       PRES   REMARKS
SAN ANGELO     CLEAR     58  24  27 SE5       29.84R                  
ABILENE        CLEAR     55  32  41 SE9       29.85S                  
DYESS AFB      CLEAR     50  27  41 S6        29.84S                  
JUNCTION       CLEAR     58  33  39 W3        29.85R                  
SWEETWATER     NOT AVBL                                               
BROWNWOOD      NOT AVBL                                               
COLEMAN        NOT AVBL                                               
SONORA         NOT AVBL                                               
OZONA          FAIR      59  23  25 CALM      29.87S                  
BRADY          PTCLDY    61  28  29 E8        29.85R                  
$$


SKY/WX - Weather  TMP - Temperature  DP - Dew Point  RH - Relative Humidity
WIND - Wind Direction/Speed PRES - Barometric Pressure VSB - Visibility
WCI - Wind Chill Index E13G22 Wind - East Wind 13 mph/Gusts of 22 mph